sat.trackr.live / text

‹ back to catalog

STARLINK-36221

NORAD 67215 · 2025-304Z

PAYLOAD ACTIVE UNKNOWN

§ Identity

Operator
Country
US
Launch date
2025-12-17
Launch site
AFWTR
Launch vehicle
Mass (kg)
RCS (m²)

Purposes: comms

External: N2YO · Heavens-Above · Gunter

§ Orbital elements

Epoch: 2026-09-20T02:37:34.732128Z

Period
96.11 min
Inclination
70.0018°
Eccentricity
0.0002652
Mean motion
14.98335070 rev/d
Perigee alt
570.2 km
Apogee alt
573.9 km
Semi-major
6,950.2 km
B*
1.5319e-4
RAAN
44.3791°
Arg perigee
271.1030°
Mean anomaly
88.9826°
Rev number
4,300

§ Raw data

STARLINK-362211 67215U 25304Z   26263.10942977  .00001736  00000+0  15319-3 0  99912 67215  70.0018  44.3791 0002652 271.1030  88.9826 14.98335070 43004

JSON: /api/v1/satellites/67215 · /tle

For live sub-satellite position, see the globe view (requires WebGL).

§ Visibility from observer

Set your observer location to see the next 7 days of passes ≥ 10°. The values pass through the URL so the page stays shareable.

No JS? Fill the form by hand. The geolocation button needs JavaScript.